Powrót do katalogu

COSMOS 952

AktywnyMilitariaLEO
NORAD 10358·PAYLOAD·🇷🇺 Russia

Wystrzelony Sep 16, 1977 z Baikonur Cosmodrome

Loading…

Następne Przeloty (najbliższe 24 godziny)

TLE

ŚwieżeSource: Space-Track

Epoka: Sep 14, 2026, 00:35 UTC

1 10358U 77088A   26257.02476460 -.00000073  00000-0  14832-4 0  9991
2 10358  64.9341 264.7510 0051544 336.6908  23.1814 13.83747529475470

Śledź COSMOS 952 w czasie rzeczywistym z AllMySat

Download on the App Store